SENTINEL-3B (43437 NORAD) Tracking and Keplerian Element Data

This shows tracking and keplerian element data for the satellite.

Feedback or suggestion? Click here.




ElementValue
Catalog43437
NameSENTINEL-3B
Epoch Orbit31866
Epoch Day159.59984869
Epoch Year2024
RAAN226.6492
Inclination98.6285
Eccentricity8.1E-05
Argument of Perigee103.3388
Mean Anonmoly256.7882
Mean Motion14.26735243
Decay Rate3.26E-06
L11 43437U 18039A 24159.59984869 .00000326 00000+0 15277-3 0 9996
L22 43437 98.6285 226.6492 0000810 103.3388 256.7882 14.26735243318666



Live tracking and technical data element details for SENTINEL-3B (NORAD 43437). SENTINEL-3B can be tracked NOW for your location showing map with azimuth and elevation plus other details from your city location.







IsCatalogInMostPopularTable: catalog: 43437, numindb: 847
Update: records affected: 1



GetName: 43437 SENTINEL-3B

Hit Count: updated at: Tue, 17 Sep 2024 12:35:55 GMT